This is the latest recevied weather packets stored in our database for station/object KG7MRB. If no packets are shown the sender has not sent any weather packets the latest 10 day(s).
| Time | Temp. | Humidity | Pressure | Rain* | Wind** | Luminosity | Snow |
|---|---|---|---|---|---|---|---|
| 1778199503 | 17.78° C | 69% | 1035.4 hPa | 0 mm | - | 137 W/m² | - |
| 1778199199 | 17.22° C | 70% | 1035.3 hPa | 0 mm | - | 153 W/m² | - |
| 1778198895 | 17.78° C | 67% | 1035.5 hPa | 0 mm | - | 142 W/m² | - |
| 1778198592 | 17.78° C | 68% | 1035.4 hPa | 0 mm | - | 180 W/m² | - |
| 1778198289 | 17.22° C | 68% | 1035.5 hPa | 0 mm | - | 205 W/m² | - |
| 1778197986 | 17.78° C | 69% | 1035.4 hPa | 0 mm | - | 201 W/m² | - |
| 1778197683 | 17.78° C | 69% | 1035.5 hPa | 0 mm | - | 225 W/m² | - |
| 1778197379 | 17.78° C | 66% | 1035.6 hPa | 0 mm | - | 237 W/m² | - |
| 1778197076 | 17.78° C | 67% | 1035.5 hPa | 0 mm | - | 234 W/m² | - |
| 1778196774 | 17.22° C | 67% | 1035.6 hPa | 0 mm | - | 226 W/m² | - |
| 1778196471 | 17.78° C | 67% | 1035.6 hPa | 0 mm | - | 250 W/m² | - |
| 1778196168 | 17.78° C | 67% | 1035.7 hPa | 0 mm | - | 227 W/m² | - |
| 1778195864 | 17.22° C | 69% | 1035.7 hPa | 0 mm | - | 251 W/m² | - |
| 1778195561 | 17.78° C | 67% | 1036 hPa | 0 mm | - | 255 W/m² | - |
| 1778195258 | 17.22° C | 69% | 1035.8 hPa | 0 mm | - | 245 W/m² | - |
| 1778194956 | 17.78° C | 68% | 1035.9 hPa | 0 mm | - | 285 W/m² | - |
| 1778194655 | 17.78° C | 68% | 1035.9 hPa | 0 mm | - | 270 W/m² | - |
| 1778194352 | 17.78° C | 66% | 1036.1 hPa | 0 mm | - | 258 W/m² | - |
| 1778194047 | 17.78° C | 66% | 1035.8 hPa | 0 mm | - | 275 W/m² | - |
| 1778193744 | 17.78° C | 69% | 1036 hPa | 0 mm | - | 282 W/m² | - |
| 1778193440 | 17.22° C | 66% | 1036 hPa | 0 mm | - | 289 W/m² | - |
| 1778193137 | 17.22° C | 67% | 1036.2 hPa | 0 mm | - | 283 W/m² | - |
| 1778192834 | 17.78° C | 66% | 1036.2 hPa | 0 mm | - | 299 W/m² | - |
| 1778192530 | 17.22° C | 67% | 1036.4 hPa | 0 mm | - | 300 W/m² | - |
| 1778192227 | 17.78° C | 64% | 1036.4 hPa | 0 mm | - | 311 W/m² | - |
* Rain latest hour (hover to see other rain measurements)
** Current wind speed in m/s (hover to see current wind gust speed)